Location: Stony Creek
(40.9500°S, 175.8500°E)
Time: 09:01:32
(UTC+00:00)

BREEZE M DEB (TANK) - Pass Details

Date: 15 May 2026
Orbit: 280 x 13709 km, 49.6° (Epoch: 9 June)

Event Time Altitude Azimuth Distance (km) Brightness Sun altitude
Exits shadow 17:11:34 48° 243° (WSW) 1,263 3.7 -23.7°
Maximum altitude 17:13:13 83° 325° (NW) 784 2.9 -23.4°
Drops below altitude 10° 17:16:22 10° 53° (NE) 1,626 5.5 -22.8°
Sets 17:17:41 0° 54° (NE) 2,252 6.4 -22.6°
